Regional Weather Roundup
Issued by NWS

Home | Current Version | Previous Version | Text Only | Print | Product List | Glossary On
Versions: 1 2 3 4 5 6 7 8 9 10 11 12 13 14 15 16 17 18 19 20 21 22 23 24 25 26 27 28 29 30 31 32 33 34 35 36 37 38 39 40 41 42 43 44 45 46 47 48 49 50
000
ASHW40 PHFO 090643
RWRHI

WEATHER ROUNDUP FOR HAWAII
NATIONAL WEATHER SERVICE HONOLULU HI
800 PM HST MON FEB 08 2016

THIS IS AN AUTOMATED REPORT THAT HAS NOT BEEN QUALITY CONTROLLED.

NOTE..."FAIR" INDICATES FEW OR NO CLOUDS BELOW 12,000 FEET WITH NO
SIGNIFICANT WEATHER AND/OR OBSTRUCTIONS TO VISIBILITY.

* - THESE SITES REPORT LIMITED FIELDS

HIZ001>004-090700-
KAUAI-NIIHAU-

CITY           SKY/WX    TMP DP  RH WIND       PRES   REMARKS
LIHUE APT      CLEAR     64  53  67 NW7       30.01R
PORT ALLEN*      N/A     70 N/A N/A E7G14       N/A
POIPU*           N/A     63 N/A N/A NW1         N/A
PRINCEVILLE*     N/A     63 N/A N/A S3          N/A
KOKOLE POINT*  NOT AVBL
MOLOAA DAIRY*    N/A     61  52  72 NW1         N/A
WAIMEA HTS*      N/A     64  52  63 N2G9        N/A
PUU OPAE*        N/A     55  48  76 NE3         N/A
PUU LUA*       NOT AVBL
MAKAHA RIDGE*    N/A     57  50  77 E1          N/A
$$

HIZ005>011-090700-
OAHU-

CITY           SKY/WX    TMP DP  RH WIND       PRES   REMARKS
HONOLULU       PTCLDY    70  55  59 NE7       30.00R
KALAELOA       CLEAR     67  53  61 NE7       30.01R
KANEOHE MCB    PTCLDY    68  54  60 N3        29.99R
WHEELER FIELD  FAIR      60  54  82 NW7       30.00R
BELLOWS*         N/A    N/A N/A N/A NE5         N/A
KAHUKU*          N/A    N/A N/A N/A VRB1        N/A
WHEELER*         N/A    N/A N/A N/A NW5         N/A
WAIANAE HARBOR   N/A    N/A N/A N/A NE2         N/A
DILLINGHAM*      N/A     82  70  65 MISG        N/A
KAHUKU TRN*      N/A     63  54  72 S3          N/A
KAWAILOA*        N/A     61  52  72 NE5         N/A
KII*             N/A     64  55  72 SW2         N/A
MAKUA RANGE*     N/A     75  63  64 E7          N/A
OAHU FOREST NW NOT AVBL
SCHOFIELD BRK*   N/A     59  55  88 MISG        N/A
SCHOFIELD S*   NOT AVBL
WAIANAE VLY*   NOT AVBL
KUAOKALA*        N/A     63  52  67 E10         N/A
HONOULIUULI*   NOT AVBL
MOKUOLOE IS*   NOT AVBL
PALEHUA*         N/A     57  52  82 NE3G12      N/A
WAIAWA PHB*    NOT AVBL
$$

HIZ012>013-090700-
MOLOKAI-

CITY           SKY/WX    TMP DP  RH WIND       PRES   REMARKS
MOLOKAI AIRPT  CLEAR     65  52  62 N5        30.02R
KALAUPAPA      NOT AVBL
MAKAPULAPAI*     N/A     63  52  67 SE7         N/A
MOLOKAI 1*     NOT AVBL
PUU ALII*        N/A     46  46 100 N1          N/A
$$

HIZ016-090700-
KAHOOLAWE-

CITY           SKY/WX    TMP DP  RH WIND       PRES   REMARKS
KAHOOLAWE*       N/A     61 N/A N/A E1          N/A
HAKIOAWA*        N/A     63  54  72 MISG      30.44R
HONOKANAIA*      N/A     70  54  56 VRB8G16   29.94R
KANELOA*         N/A     68  55  64 NE10G23   30.04R
KEALIALALO*      N/A     64  54  68 NE6G14    30.02
LUA MAKIKA*    NOT AVBL
$$

HIZ014>015-090700-
LANAI-

CITY           SKY/WX    TMP DP  RH WIND       PRES   REMARKS
LANAI CITY     FAIR      62  52  69 NE12      30.05R
LANAI 1*       NOT AVBL
$$

HIZ017>028-090700-
MAUI-

CITY           SKY/WX    TMP DP  RH WIND       PRES   REMARKS
KAHULUI        PTCLDY    66  57  72 SE5       30.02R
KAPALUA-W MAUI NOT AVBL
HANA AIRPORT   CLOUDY    63  32  31 S5        30.07R
HANA*            N/A     64 N/A N/A S3          N/A
HALEAKALA SUMM   N/A     45   9  23 W7          N/A
MAALAEA BAY*     N/A     68 N/A N/A N8          N/A
HALEAKALA*     NOT AVBL
KAUPO GAP*       N/A     48  45  87 N1G8        N/A
KULA 1*          N/A     52  11  19 E5          N/A
$$

HIZ023>026-090700-
BIG ISLAND OF HAWAII COAST AND LOWER SLOPES-

CITY           SKY/WX    TMP DP  RH WIND       PRES   REMARKS
KAILUA KONA    PTCLDY    74  60  61 CALM      29.97R
HILO           CLOUDY    72  55  55 N6        30.03R
HONOKAA*         N/A     63 N/A N/A VRB1        N/A
KAWAIHAE MWT*    N/A     75 N/A N/A E7          N/A
KAWAIHAE*        N/A     75 N/A N/A E3        29.97S
SOUTH POINT*     N/A     66 N/A N/A N9G16       N/A
UPOLU AIRPORT*   N/A    N/A N/A N/A E13G18      N/A
KAMUELA*       CLOUDY    59  54  82 NE7       30.09R
HAKALAU*         N/A     43  39  87 W5          N/A
KALOKO-HONOKO*   N/A     73  59  60 CALM      29.97R
PALI 2*          N/A     57  52  82 N12G17      N/A
KEALAKOMO*       N/A     72  54  53 NE12G18     N/A
KAUPULEHU*       N/A     66  57  72 W2G9        N/A
KAPAPALA*        N/A     62  56  80 W3          N/A
LOWER KAHUKU*    N/A     57 -42   1 VRB2        N/A
PUHE CS*         N/A     75  55  50 E6G12       N/A
PUHO CS*         N/A     72  61  67 E3          N/A
PTA KEAMUKU*     N/A     57  52  82 CALM        N/A
WAIKOLOA*        N/A     68  55  64 E13G18      N/A
$$

HIZ027>028-090700-
BIG ISLAND OF HAWAII INTERIOR AND SUMMMITS-

CITY           SKY/WX    TMP DP  RH WIND       PRES   REMARKS
BRADSHAW FIELD CLOUDY    47  47  99 SE1       30.23S
MK VISITOR CEN   N/A     52   7  16 N9          N/A
MAUNA KEA*       N/A     37  12  35 NW3         N/A
MAUNA LOA*       N/A    N/A N/A N/A MISG        N/A
MAUNA LOA 1*   NOT AVBL
PTA KIPUKA*      N/A     54  50  87 NW2         N/A
PTA RANGE 17*    N/A     52  48  87 E6          N/A
PTA WEST*        N/A     55  54  94 N2          N/A
NENE CABIN*      N/A    N/A N/A N/A N3          N/A
AHUMOA*          N/A    N/A N/A N/A NE8         N/A
PTA PORTABLE*  NOT AVBL
PUU MALI*        N/A     54  36  50 SW10        N/A
$$

HIC003-090700-
NORTHWEST ISLANDS-

CITY           SKY/WX    TMP DP  RH WIND       PRES   REMARKS
MIDWAY ISLAND  CLOUDY    61  59  94 N7        30.04R
MIDWAY NOS*      N/A     64 N/A N/A MISG      30.02S
FRENCH FRIGATE NOT AVBL
$$

PHZ110>124-180-090700-
BUOY REPORTS

STATION/POSITION TIME  TEMP    WIND        PRES    WAVE   SWELL
                       AIR SEA DIR/SP/G            HT/PER HT/DIR
                 (UTC) (F)     (DEG/KT/KT) (MB)    (FT/S) (FT/D)
BUOY 51001       0600   71 75  270/ 16/ 19 1016.4R
BUOY 51101       0550   70 75  260/ 16/ 17 1016.1R  10/13  10/330
BUOY 51100       NOT AVBL
BUOY 51002       0550   75 77   70/ 14/ 17 1013.8R  10/11   8/350
BUOY 51003       0550   73 78   40/ 14/ 17 1015.1R  10/11  10/360
BUOY 51004       0550   75 77   60/ 16/ 17 1014.4R  11/13  10/330
BARBERS PT BUOY  NOT AVBL
WAIMEA BAY BUOY  0604      77                N/A     9/12   7/340
KAILUA BAY BUOY  0611      77                N/A     8/13   7
LANAI BUOY       NOT AVBL
BARBERS PT 2     0603      77                N/A     7/13   7/320
PAUWELA MAUI     0607      77                N/A    12/13  10/340
HILO             NOT AVBL
KANEOHE BAY BUOY 0606      76                N/A     8/12   5
HANALEI KAUAI    0601      77                N/A    13/12  10/320
KAHULUI HARBOR   NOT AVBL
HONOLULU HARBOR  0600   69 77   50/  6/  8 1016.6R
KILO NALU        NOT AVBL
HILO HARBOR      0600   72 76   30/  8/ 10 1016.4R
MOKUOLOE         0500   71 77   50/  2/  4 1015.6R
NAWILIWILI       0600   65 78  270/  4/  6 1016.0R
WHOTS BUOY       NOT AVBL
BUOY 51028       NOT AVBL
$$

......................KEY........................................
  SKY/WX - SKY CONDITIONS/PRESENT WEATHER
  TMP    - TEMPERATURE IN FAHRENHEIT
  DWPT   - DEWPOINT IN FAHRENHEIT
  RH     - RELATIVE HUMIDITY IN PERCENT
  WIND   - DIRECTION AND SPEED /MPH FOR ISLANDS...KTS FOR BUOYS/
  PRES   - MEAN SEA LEVEL PRESSURE IN INCHES OF HG
  VSB    - VISIBILITY IN MILES
  HX     - HEAT INDEX
  WCI    - WIND CHILL INDEX
  VRB    - VARIABLE WIND DIRECTION
  N/A    - NOT AVAILABLE



USA.gov is the U.S. government's official web portal to all federal, state and local government web resources and services.